IT9IRS-1 Weather Reports


Display with metric or nautical units.
time (UTC)temp
F
wind
direction
speed
MPH
gust
MPH
rain 1hr
in
rain 24hr
in
rain mn
in
humidity
%
barometer
mb
20260503213004 63 164 8.0 11.0 0.00 0.00 0.00 72 1016.3
20260503212504 63 165 9.0 11.0 0.00 0.00 0.00 72 1016.3
20260503212216 63 159 8.0 11.0 0.00 0.00 0.00 72 1016.3
20260503211504 63 158 8.0 12.0 0.00 0.00 0.00 72 1016.3
20260503211004 63 160 6.0 11.0 0.00 0.00 0.00 72 1016.3
20260503210504 63 151 7.0 10.0 0.00 0.00 0.00 72 1016.3
20260503210004 63 148 8.0 11.0 0.00 0.00 0.00 72 1016.3
20260503205504 63 154 7.0 11.0 0.00 0.00 0.00 72 1016.3
20260503205004 63 162 6.0 9.0 0.00 0.00 0.00 72 1016.3
20260503204504 63 158 7.0 10.0 0.00 0.00 0.00 72 1016.3
20260503204004 63 148 7.0 10.0 0.00 0.00 0.00 72 1016.3
20260503203504 63 154 7.0 9.0 0.00 0.00 0.00 71 1016.3
20260503203216 63 158 7.0 9.0 0.00 0.00 0.00 71 1016.3
20260503202503 63 141 5.0 8.0 0.00 0.00 0.00 71 1016.3
20260503202217 63 120 5.0 8.0 0.00 0.00 0.00 71 1016.3
20260503201504 63 124 5.0 8.0 0.00 0.00 0.00 71 1016.3
20260503201213 63 128 5.0 8.0 0.00 0.00 0.00 71 1016.3
20260503200503 63 108 4.0 6.0 0.00 0.00 0.00 71 1016.3
20260503200004 63 133 5.0 8.0 0.00 0.00 0.00 70 1016.3
20260503195717 63 134 4.0 8.0 0.00 0.00 0.00 70 1016.3
20260503195003 63 135 4.0 6.0 0.00 0.00 0.00 70 1016.3
20260503194504 63 146 4.0 6.0 0.00 0.00 0.00 70 1016.3
20260503194004 63 146 4.0 6.0 0.00 0.00 0.00 69 1016.3
20260503193503 63 141 4.0 7.0 0.00 0.00 0.00 69 1016.3
20260503193003 63 141 4.0 7.0 0.00 0.00 0.00 69 1016.3
20260503192503 63 143 5.0 8.0 0.00 0.00 0.00 69 1016.3
20260503192212 63 133 5.0 8.0 0.00 0.00 0.00 69 1016.3
20260503191505 63 131 4.0 6.0 0.00 0.00 0.00 69 1016.3
20260503191003 63 144 4.0 7.0 0.00 0.00 0.00 68 1015.3
20260503190503 63 145 5.0 8.0 0.00 0.00 0.00 68 1015.3
20260503190003 63 153 6.0 8.0 0.00 0.00 0.00 68 1015.3
20260503185505 63 158 6.0 8.0 0.00 0.00 0.00 68 1016.3
20260503185004 63 168 6.0 9.0 0.00 0.00 0.00 68 1016.3
20260503184504 63 176 7.0 9.0 0.00 0.00 0.00 68 1016.3
20260503184005 63 172 7.0 9.0 0.00 0.00 0.00 67 1015.3
20260503183504 63 168 7.0 8.0 0.00 0.00 0.00 67 1015.3
20260503183004 63 169 7.0 9.0 0.00 0.00 0.00 67 1015.3
20260503182505 63 170 6.0 9.0 0.00 0.00 0.00 67 1015.3
20260503182006 63 175 6.0 9.0 0.00 0.00 0.00 67 1015.3
20260503181716 63 172 6.0 9.0 0.00 0.00 0.00 67 1015.3
20260503181004 64 165 6.0 9.0 0.00 0.00 0.00 68 1015.3
20260503180504 64 160 7.0 8.0 0.00 0.00 0.00 68 1015.3
20260503180215 64 166 7.0 8.0 0.00 0.00 0.00 68 1015.3
20260503175504 64 178 7.0 11.0 0.00 0.00 0.00 68 1015.3
20260503175216 64 176 7.0 11.0 0.00 0.00 0.00 68 1015.3
20260503174714 64 171 6.0 9.0 0.00 0.00 0.00 68 1015.3
20260503174004 64 170 6.0 9.0 0.00 0.00 0.00 68 1015.3
20260503173715 64 176 6.0 9.0 0.00 0.00 0.00 68 1015.3
20260503173218 64 176 6.0 9.0 0.00 0.00 0.00 69 1015.3
20260503172504 64 180 7.0 10.0 0.00 0.00 0.00 69 1015.3
20260503172214 65 167 7.0 10.0 0.00 0.00 0.00 69 1015.3
20260503171504 64 161 6.0 11.0 0.00 0.00 0.00 69 1015.3
20260503171004 64 160 6.0 8.0 0.00 0.00 0.00 69 1015.3
20260503170504 64 154 6.0 8.0 0.00 0.00 0.00 69 1015.3
20260503160215 65 176 7.0 10.0 0.00 0.00 0.00 69 1015.3
20260503151003 66 180 10.0 14.0 0.00 0.00 0.00 67 1015.3
20260503150505 66 180 12.0 15.0 0.00 0.00 0.00 67 1015.3
20260503131003 67 186 13.0 17.0 0.00 0.00 0.00 62 1017.3
20260503130503 67 185 14.0 18.0 0.00 0.00 0.00 61 1017.3
20260503120217 66 185 10.0 15.0 0.00 0.00 0.00 66 1017.3
20260503110715 67 178 9.0 11.0 0.00 0.00 0.00 67 1017.3
20260503090504 67 137 9.0 13.0 0.00 0.00 0.00 68 1018.3
20260503072503 64 101 11.0 15.0 0.00 0.00 0.00 71 1017.3
20260503072217 64 110 11.0 17.0 0.00 0.00 0.00 71 1017.3
20260503071506 64 111 12.0 17.0 0.00 0.00 0.00 71 1017.3
20260503071213 64 100 12.0 14.0 0.00 0.00 0.00 71 1017.3
20260503070503 64 96 13.0 14.0 0.00 0.00 0.00 71 1017.3
20260503070219 64 89 13.0 17.0 0.00 0.00 0.00 71 1017.3
20260503055004 61 92 9.0 12.0 0.00 0.00 0.00 75 1017.3
20260503054504 61 95 9.0 12.0 0.00 0.00 0.00 76 1017.3
20260503054004 60 78 8.0 13.0 0.00 0.00 0.00 76 1017.3
20260503053504 60 70 9.0 15.0 0.00 0.00 0.00 76 1017.3
20260503053004 59 63 10.0 15.0 0.00 0.00 0.00 76 1017.3
20260503052504 59 66 9.0 14.0 0.00 0.00 0.00 76 1017.3
20260503052004 58 75 8.0 10.0 0.00 0.00 0.00 76 1017.3
20260503051504 58 62 6.0 8.0 0.00 0.00 0.00 76 1017.3
20260503051004 57 51 6.0 8.0 0.00 0.00 0.00 76 1017.3
20260503050504 56 50 7.0 8.0 0.00 0.00 0.00 75 1017.3
20260503050215 56 48 7.0 8.0 0.00 0.00 0.00 75 1017.3
20260503045504 56 50 6.0 8.0 0.00 0.00 0.00 75 1017.3
20260503045004 56 56 6.0 7.0 0.00 0.00 0.00 75 1017.3
20260503044504 56 59 7.0 9.0 0.00 0.00 0.00 75 1017.3
20260503044003 56 62 7.0 9.0 0.00 0.00 0.00 75 1017.3
20260503043504 56 52 6.0 9.0 0.00 0.00 0.00 75 1017.3
20260503043218 56 55 7.0 9.0 0.00 0.00 0.00 75 1017.3
20260503042503 55 53 7.0 10.0 0.00 0.00 0.00 75 1016.3
20260503042004 55 52 7.0 10.0 0.00 0.00 0.00 75 1016.3
20260503041503 55 52 7.0 9.0 0.00 0.00 0.00 75 1016.3
20260503041215 55 42 7.0 9.0 0.00 0.00 0.00 74 1016.3
20260503040713 55 40 7.0 9.0 0.00 0.00 0.00 74 1016.3
20260503040004 56 45 7.0 8.0 0.00 0.00 0.00 74 1016.3
20260503035504 56 47 7.0 10.0 0.00 0.00 0.00 74 1017.3
20260503035003 57 61 7.0 10.0 0.00 0.00 0.00 75 1017.3
20260503034715 56 62 7.0 10.0 0.00 0.00 0.00 75 1017.3
20260503034003 56 55 7.0 8.0 0.00 0.00 0.00 74 1017.3
20260503033503 56 61 7.0 8.0 0.00 0.00 0.00 74 1017.3
20260503033003 56 62 7.0 8.0 0.00 0.00 0.00 74 1017.3
20260503032503 56 55 7.0 9.0 0.00 0.00 0.00 74 1017.3
20260503032004 56 49 7.0 9.0 0.00 0.00 0.00 74 1017.3
20260503031503 56 46 7.0 8.0 0.00 0.00 0.00 74 1017.3
20260503031004 56 45 8.0 10.0 0.00 0.00 0.00 73 1016.3
20260503030503 56 47 7.0 10.0 0.00 0.00 0.00 73 1016.3
20260503030216 56 46 7.0 10.0 0.00 0.00 0.00 73 1016.3
20260503025714 56 50 6.0 7.0 0.00 0.00 0.00 73 1016.3
20260503025003 56 55 7.0 8.0 0.00 0.00 0.00 73 1016.3
20260503024503 57 56 7.0 9.0 0.00 0.00 0.00 73 1016.3
20260503024004 57 60 7.0 9.0 0.00 0.00 0.00 73 1016.3
20260503023503 57 55 7.0 9.0 0.00 0.00 0.00 72 1016.3
20260503023004 57 54 7.0 10.0 0.00 0.00 0.00 72 1016.3
20260503022504 57 54 8.0 11.0 0.00 0.00 0.00 72 1017.3
20260503022215 57 49 8.0 11.0 0.00 0.00 0.00 72 1017.3
20260503021504 58 54 7.0 10.0 0.00 0.00 0.00 72 1017.3
20260503021004 59 68 8.0 13.0 0.00 0.00 0.00 72 1017.3
20260503020504 59 64 8.0 13.0 0.00 0.00 0.00 72 1017.3
20260503020217 58 54 6.0 10.0 0.00 0.00 0.00 72 1017.3
20260503015504 58 53 6.0 12.0 0.00 0.00 0.00 72 1017.3
20260503015004 59 65 8.0 14.0 0.00 0.00 0.00 72 1017.3
20260503014716 59 72 9.0 14.0 0.00 0.00 0.00 72 1017.3
20260503014004 60 68 10.0 13.0 0.00 0.00 0.00 73 1017.3
20260503013504 60 79 9.0 12.0 0.00 0.00 0.00 72 1017.3
20260503013004 60 90 10.0 16.0 0.00 0.00 0.00 73 1017.3
20260503012504 61 93 12.0 18.0 0.00 0.00 0.00 73 1017.3
20260503012004 61 90 13.0 19.0 0.00 0.00 0.00 73 1017.3
20260503011504 61 87 15.0 24.0 0.00 0.00 0.00 73 1017.3
20260503011004 61 93 16.0 24.0 0.00 0.00 0.00 73 1017.3
20260503010715 61 92 16.0 24.0 0.00 0.00 0.00 73 1017.3
20260503010218 61 86 17.0 20.0 0.00 0.00 0.00 72 1017.3
20260503005504 61 84 15.0 21.0 0.00 0.00 0.00 72 1017.3
20260503005214 61 86 14.0 21.0 0.00 0.00 0.00 72 1017.3
20260503004717 61 85 12.0 21.0 0.00 0.00 0.00 72 1017.3
20260503004004 60 73 10.0 14.0 0.00 0.00 0.00 71 1017.3
20260503003504 60 69 11.0 14.0 0.00 0.00 0.00 71 1017.3
20260503003004 60 67 11.0 15.0 0.00 0.00 0.00 70 1017.3
20260503002504 60 77 10.0 15.0 0.00 0.00 0.00 70 1017.3
20260503002003 59 77 10.0 15.0 0.00 0.00 0.00 70 1017.3
20260503001504 59 78 13.0 16.0 0.00 0.00 0.00 70 1017.3
20260503001004 59 74 12.0 16.0 0.00 0.00 0.00 70 1017.3
20260503000503 58 65 10.0 13.0 0.00 0.00 0.00 70 1017.3
20260503000004 57 54 8.0 12.0 0.00 0.00 0.00 68 1017.3
20260502235503 56 47 7.0 9.0 0.00 0.00 0.00 67 1018.3
20260502235003 55 48 7.0 9.0 0.00 0.00 0.00 66 1018.3
20260502234717 55 46 7.0 9.0 0.00 0.00 0.00 66 1018.3
20260502234216 55 44 7.0 9.0 0.00 0.00 0.00 64 1018.3
20260502233503 54 39 6.0 8.0 0.00 0.00 0.00 64 1018.3
20260502233003 54 43 6.0 9.0 0.00 0.00 0.00 63 1018.3
20260502232503 54 46 7.0 9.0 0.00 0.00 0.00 63 1018.3
20260502232003 54 47 7.0 9.0 0.00 0.00 0.00 63 1018.3
20260502231504 54 47 7.0 8.0 0.00 0.00 0.00 63 1018.3
20260502231003 54 46 7.0 8.0 0.00 0.00 0.00 63 1018.3
20260502230504 54 48 7.0 9.0 0.00 0.00 0.00 63 1018.3
20260502230004 54 46 7.0 9.0 0.00 0.00 0.00 63 1018.3
20260502225503 54 46 7.0 9.0 0.00 0.00 0.00 63 1018.3
20260502225004 54 48 6.0 8.0 0.00 0.00 0.00 64 1018.3
20260502224503 54 48 5.0 8.0 0.00 0.00 0.00 64 1018.3
20260502224003 54 40 5.0 8.0 0.00 0.00 0.00 64 1018.3
20260502223503 54 36 6.0 8.0 0.00 0.00 0.00 64 1018.3
20260502223003 54 40 6.0 9.0 0.00 0.00 0.00 64 1018.3
20260502222503 54 43 7.0 9.0 0.00 0.00 0.00 64 1018.3
20260502222003 54 45 7.0 9.0 0.00 0.00 0.00 64 1018.3
20260502221503 54 45 7.0 9.0 0.00 0.00 0.00 64 1018.3
20260502221004 54 40 7.0 9.0 0.00 0.00 0.00 63 1018.3
20260502220503 55 37 6.0 8.0 0.00 0.00 0.00 63 1018.3
20260502220004 55 40 5.0 8.0 0.00 0.00 0.00 63 1018.3
20260502215504 55 43 5.0 5.0 0.00 0.00 0.00 62 1018.3
20260502215005 56 50 4.0 5.0 0.00 0.00 0.00 62 1018.3
20260502214504 56 47 5.0 8.0 0.00 0.00 0.00 62 1018.3
20260502214006 56 41 5.0 8.0 0.00 0.00 0.00 62 1018.3
20260502213504 56 35 4.0 6.0 0.00 0.00 0.00 62 1018.3